TimeEDT,TemperatureF,Dew PointF,Humidity,Sea Level PressureIn,VisibilityMPH,Wind Direction,Wind SpeedMPH,Gust SpeedMPH,PrecipitationIn,Events,Conditions,WindDirDegrees,DateUTC
12:29 AM,64.4,60.8,88,30.16,10.0,East,6.9,-,N/A,,Overcast,90,2012-10-26 04:29:00
12:52 AM,64.0,60.1,87,30.16,9.0,East,6.9,-,N/A,,Overcast,90,2012-10-26 04:52:00
1:31 AM,64.4,60.8,88,30.16,8.0,East,6.9,-,N/A,,Overcast,100,2012-10-26 05:31:00
1:52 AM,64.0,61.0,90,30.16,9.0,ESE,8.1,-,N/A,,Overcast,110,2012-10-26 05:52:00
2:52 AM,64.0,61.0,90,30.15,9.0,NE,3.5,-,N/A,,Overcast,50,2012-10-26 06:52:00
3:09 AM,64.4,60.8,88,30.15,10.0,ENE,5.8,-,N/A,,Overcast,60,2012-10-26 07:09:00
3:52 AM,64.0,60.1,87,30.15,10.0,NE,4.6,-,N/A,,Overcast,40,2012-10-26 07:52:00
4:52 AM,63.0,60.1,90,30.15,10.0,NE,5.8,-,N/A,,Overcast,50,2012-10-26 08:52:00
5:22 AM,62.6,60.8,94,30.15,8.0,NE,5.8,-,N/A,,Overcast,50,2012-10-26 09:22:00
5:52 AM,63.0,60.1,90,30.15,10.0,ENE,5.8,-,N/A,,Overcast,60,2012-10-26 09:52:00
5:56 AM,62.6,59.0,88,30.15,10.0,ENE,5.8,-,N/A,,Overcast,60,2012-10-26 09:56:00
6:52 AM,62.1,59.0,90,30.15,10.0,NNE,4.6,-,N/A,,Overcast,20,2012-10-26 10:52:00
7:52 AM,62.1,59.0,90,30.16,10.0,NNE,4.6,-,N/A,,Overcast,20,2012-10-26 11:52:00
8:52 AM,63.0,59.0,87,30.17,10.0,NNE,9.2,-,N/A,,Overcast,20,2012-10-26 12:52:00
9:52 AM,63.0,59.0,87,30.20,10.0,North,10.4,-,N/A,,Overcast,10,2012-10-26 13:52:00
10:52 AM,66.0,60.1,81,30.19,10.0,NNE,10.4,-,N/A,,Mostly Cloudy,30,2012-10-26 14:52:00
11:52 AM,70.0,60.1,71,30.16,10.0,NNE,8.1,-,N/A,,Mostly Cloudy,20,2012-10-26 15:52:00
12:52 PM,70.0,61.0,73,30.13,10.0,East,10.4,-,N/A,,Mostly Cloudy,80,2012-10-26 16:52:00
1:52 PM,70.0,60.1,71,30.10,10.0,ENE,8.1,-,N/A,,Mostly Cloudy,70,2012-10-26 17:52:00
2:52 PM,72.0,60.1,66,30.08,10.0,Variable,3.5,-,N/A,,Mostly Cloudy,0,2012-10-26 18:52:00
3:52 PM,72.0,60.1,66,30.06,10.0,North,6.9,-,N/A,,Mostly Cloudy,10,2012-10-26 19:52:00
4:52 PM,71.1,60.1,68,30.06,10.0,North,5.8,-,N/A,,Mostly Cloudy,360,2012-10-26 20:52:00
5:52 PM,68.0,59.0,73,30.06,10.0,North,6.9,-,N/A,,Overcast,350,2012-10-26 21:52:00
6:52 PM,66.0,59.0,78,30.07,10.0,North,5.8,-,N/A,,Overcast,360,2012-10-26 22:52:00
7:52 PM,66.0,60.1,81,30.08,10.0,NNE,4.6,-,N/A,,Overcast,20,2012-10-26 23:52:00
8:52 PM,66.0,59.0,78,30.07,10.0,ENE,9.2,-,N/A,,Overcast,60,2012-10-27 00:52:00
9:52 PM,64.9,59.0,81,30.07,10.0,NE,8.1,-,N/A,,Overcast,50,2012-10-27 01:52:00
10:52 PM,64.0,59.0,84,30.05,10.0,NE,10.4,-,N/A,,Overcast,50,2012-10-27 02:52:00
11:52 PM,63.0,59.0,87,30.03,10.0,NE,8.1,-,N/A,,Clear,50,2012-10-27 03:52:00